Location: B�di�
(14.6834°N, 3.1047°W)
Time: 04:58:12
(UTC+00:00)

USA 234 - Pass Details

Date: 24 January 2020
Orbit: 1100 x 1107 km, 123.0° (Epoch: 09 February)

Event Time Altitude Azimuth Distance (km) Brightness Sun altitude
Rises 18:55:35 0° 123° (ESE) 3,905 5.8 -11.9°
Reaches altitude 10° 18:58:14 10° 115° (ESE) 2,948 5.1 -12.6°
Maximum altitude 19:04:10 39° 49° (NE) 1,587 3.7 -13.9°
Drops below altitude 10° 19:10:06 10° 343° (NNW) 2,950 5.5 -15.3°
Sets 19:12:45 0° 336° (NNW) 3,909 6.3 -15.9°
